GW1109 Weather Reports


time (UTC)temp
C
wind
direction
speed
KPH
gust
KPH
rain 1hr
cm
rain 24hr
cm
rain mn
cm
humidity
%
barometer
mb
20260906003050 17 0 0.0 0.0 0.00 0.05 0.05 80 1013.0
20260906001547 17 0 0.0 0.0 0.00 0.05 0.05 80 1012.9
20260906000107 17 0 0.0 1.6 0.00 0.05 0.05 82 1012.6
20260905234559 18 0 0.0 4.8 0.00 0.05 0.05 83 1012.7
20260905233052 18 0 0.0 4.8 0.00 0.05 0.05 81 1012.5
20260905231549 18 0 0.0 0.0 0.00 0.05 0.05 77 1012.4
20260905230100 18 0 0.0 6.4 0.00 0.05 0.05 71 1012.3
20260905224552 18 5 1.6 4.8 0.00 0.05 0.05 70 1012.2
20260905223051 18 0 0.0 4.8 0.00 0.05 0.05 68 1012.2
20260905221549 19 0 0.0 8.0 0.00 0.05 0.05 66 1012.1
20260905220059 19 56 3.2 16.1 0.00 0.05 0.05 64 1011.8
20260905214555 19 321 3.2 19.3 0.00 0.05 0.05 66 1011.6
20260905213049 19 360 1.6 4.8 0.00 0.05 0.05 68 1011.5
20260905211602 19 317 3.2 6.4 0.00 0.05 0.05 67 1011.3
20260905204611 20 23 3.2 12.9 0.00 0.05 0.05 65 1011.2
20260905203101 20 26 6.4 24.1 0.00 0.05 0.05 62 1011.1
20260905201553 20 17 3.2 14.5 0.00 0.05 0.05 66 1011.0
20260905200058 20 12 3.2 12.9 0.00 0.05 0.05 69 1011.0
20260905194600 20 352 4.8 12.9 0.00 0.05 0.05 69 1011.0
20260905193052 20 348 4.8 16.1 0.05 0.05 0.05 72 1011.0
20260905191549 20 94 3.2 14.5 0.05 0.05 0.05 74 1011.0
20260905190057 18 0 0.0 8.0 0.05 0.05 0.05 80 1011.0
20260905184557 18 29 1.6 12.9 0.05 0.05 0.05 78 1011.0
20260905183056 20 183 4.8 9.7 0.00 0.00 0.00 73 1010.8
20260905181548 18 338 3.2 14.5 0.00 0.00 0.00 78 1011.0
20260905180104 18 24 4.8 24.1 0.00 0.00 0.00 80 1011.0
20260905174555 19 21 8.0 14.5 0.00 0.08 0.00 79 1010.9
20260905173100 18 350 6.4 24.1 0.00 0.08 0.00 78 1010.9
20260905171546 20 43 6.4 17.7 0.00 0.08 0.00 71 1010.8
20260905164602 21 92 4.8 19.3 0.00 0.08 0.00 66 1010.7
20260905163101 20 355 4.8 12.9 0.00 0.08 0.00 72 1010.8
20260905161600 20 313 3.2 11.3 0.00 0.08 0.00 73 1011.0
20260905160056 19 37 4.8 14.5 0.00 0.08 0.00 75 1011.0
20260905154556 19 350 4.8 14.5 0.00 0.08 0.00 76 1011.1
20260905153100 18 96 4.8 14.5 0.00 0.08 0.00 80 1011.1
20260905151554 18 49 3.2 19.3 0.00 0.08 0.00 83 1011.2
20260905144600 18 325 6.4 17.7 0.00 0.08 0.00 83 1011.0
20260905143052 18 346 8.0 19.3 0.00 0.08 0.00 77 1010.9
20260905141558 18 41 9.7 20.9 0.00 0.08 0.00 75 1010.7
20260905140100 18 19 3.2 16.1 0.00 0.08 0.00 75 1010.5
20260905134601 18 13 1.6 20.9 0.00 0.08 0.00 76 1010.3
20260905133057 18 24 1.6 16.1 0.00 0.08 0.00 78 1010.2
20260905131550 18 63 4.8 14.5 0.00 0.08 0.00 78 1010.2
20260905130059 18 0 3.2 16.1 0.00 0.08 0.00 80 1010.0
20260905124558 18 0 3.2 12.9 0.00 0.08 0.00 82 1010.0
20260905123053 18 21 3.2 11.3 0.00 0.08 0.00 84 1009.9
20260905121548 17 0 0.0 6.4 0.00 0.08 0.00 86 1009.8
20260905120100 18 0 0.0 11.3 0.00 0.08 0.00 88 1009.8
20260905114558 17 0 0.0 4.8 0.00 0.08 0.00 94 1009.8
20260905113053 16 0 0.0 3.2 0.00 0.08 0.00 93 1009.8
20260905111548 16 0 0.0 3.2 0.00 0.08 0.00 94 1009.5
20260905110104 16 0 0.0 3.2 0.00 0.08 0.00 93 1009.4
20260905104556 16 0 0.0 6.4 0.00 0.08 0.00 93 1009.3
20260905103059 16 306 0.0 4.8 0.00 0.08 0.00 93 1009.0
20260905101606 16 0 0.0 4.8 0.00 0.08 0.00 94 1009.0
20260905100050 16 0 0.0 1.6 0.00 0.08 0.00 94 1008.9
20260905094559 16 0 0.0 4.8 0.00 0.08 0.00 94 1008.6
20260905093123 16 0 0.0 0.0 0.00 0.08 0.00 93 1008.6
20260905091604 16 0 0.0 1.6 0.00 0.08 0.00 91 1008.4
20260905090051 16 0 0.0 1.6 0.00 0.08 0.00 87 1008.4
20260905084548 16 0 0.0 0.0 0.00 0.08 0.00 85 1008.5
20260905083108 16 0 0.0 1.6 0.00 0.08 0.00 83 1008.3
20260905081558 16 0 0.0 4.8 0.00 0.08 0.00 82 1008.4
20260905074549 17 311 1.6 8.0 0.00 0.08 0.00 81 1008.4
20260905073100 16 311 1.6 8.0 0.00 0.08 0.00 81 1008.4
20260905071556 16 0 1.6 6.4 0.00 0.08 0.00 81 1008.5
20260905070111 17 345 1.6 6.4 0.00 0.08 0.00 80 1008.5
20260905064549 17 0 0.0 4.8 0.00 0.08 0.00 79 1008.5
20260905063059 17 0 0.0 8.0 0.00 0.08 0.00 78 1008.5
20260905061607 17 0 1.6 6.4 0.00 0.08 0.00 77 1008.6
20260905060053 17 269 4.8 9.7 0.00 0.08 0.00 76 1008.6
20260905054555 18 315 3.2 8.0 0.00 0.08 0.00 75 1008.7
20260905053059 18 296 4.8 12.9 0.00 0.08 0.00 74 1008.4
20260905051558 17 307 3.2 11.3 0.00 0.08 0.00 76 1008.6
20260905050055 17 325 1.6 8.0 0.00 0.08 0.00 76 1008.7
20260905044549 17 292 3.2 6.4 0.00 0.08 0.00 76 1008.8
20260905043058 17 0 1.6 9.7 0.00 0.08 0.00 74 1008.8
20260905041600 17 327 4.8 11.3 0.00 0.08 0.00 75 1008.7
20260905040057 18 314 3.2 9.7 0.00 0.08 0.00 73 1008.9
20260905034551 18 309 4.8 12.9 0.00 0.08 0.08 71 1009.0
20260905033105 18 290 4.8 11.3 0.00 0.08 0.08 73 1009.0
20260905031605 18 301 3.2 8.0 0.00 0.08 0.08 75 1008.9
20260905030056 18 300 1.6 6.4 0.00 0.08 0.08 73 1009.2
20260905024604 18 306 1.6 8.0 0.00 0.08 0.08 70 1009.1
20260905023058 19 360 3.2 11.3 0.00 0.08 0.08 68 1009.2
20260905021549 18 327 4.8 11.3 0.00 0.08 0.08 72 1009.2
20260905020059 17 0 0.0 1.6 0.00 0.08 0.08 79 1009.4
20260905014557 18 0 0.0 3.2 0.00 0.08 0.08 79 1009.4
20260905013053 18 184 0.0 3.2 0.00 0.08 0.08 73 1009.3
20260905011549 19 0 0.0 8.0 0.00 0.08 0.08 67 1009.5
20260905010058 18 269 3.2 9.7 0.00 0.08 0.08 72 1009.3
20260905004616 19 263 0.0 4.8 0.00 0.08 0.08 69 1009.4